Location: Chippewa Lake
(41.0698°N, 81.9010°W)
Time: 21:56:51
(UTC+00:00)

Terra - Pass Details

Date: 09 May 2021
Orbit: 701 x 703 km, 98.2° (Epoch: 17 June)

Event Time Altitude Azimuth Distance (km) Brightness Sun altitude
Exits shadow 03:37:36 71° 272° (W) 744 1.9 -26.5°
Drops below altitude 10° 03:42:15 10° 343° (NNW) 2,179 5.3 -26.9°
Sets 03:44:32 0° 345° (NNW) 3,102 6.4 -27.1°
